F6255 Weather Reports


time (UTC)temp
C
wind
direction
speed
KPH
gust
KPH
rain 1hr
cm
rain 24hr
cm
rain mn
cm
humidity
%
barometer
mb
20260503184600 16 350 9.7 17.7 0.00 0.00 0.00 43 1019.6
20260503183113 16 327 8.0 22.5 0.00 0.00 0.00 41 1019.8
20260503181559 15 13 4.8 24.1 0.00 0.00 0.00 40 1019.8
20260503180059 15 38 4.8 16.1 0.00 0.00 0.00 42 1020.0
20260503174556 15 322 6.4 20.9 0.00 0.00 0.00 43 1020.1
20260503173115 15 298 8.0 24.1 0.00 0.00 0.00 41 1020.5
20260503171555 15 79 4.8 16.1 0.00 0.00 0.00 44 1020.7
20260503120119 5 23 3.2 12.9 0.00 0.00 0.00 76 1022.3
20260503100104 2 0 0.0 1.6 0.00 0.00 0.00 94 1021.4
20260503081555 2 0 0.0 1.6 0.00 0.00 0.00 94 1021.0
20260503071551 2 0 0.0 0.0 0.00 0.00 0.00 93 1020.8
20260503070109 2 0 0.0 1.6 0.00 0.00 0.00 93 1020.9
20260503054550 2 0 0.0 1.6 0.00 0.00 0.00 91 1021.0
20260503053053 2 0 0.0 3.2 0.00 0.00 0.00 90 1021.0
20260503051553 3 138 0.0 3.2 0.00 0.00 0.00 90 1021.0
20260503050054 3 0 0.0 3.2 0.00 0.00 0.00 89 1021.2
20260503044550 3 0 0.0 3.2 0.00 0.00 0.00 88 1021.1
20260503043050 3 0 0.0 1.6 0.00 0.00 0.00 87 1021.2
20260503041604 3 0 0.0 3.2 0.00 0.00 0.00 85 1021.2
20260503040056 3 0 0.0 3.2 0.00 0.00 0.00 85 1021.2
20260503034605 3 138 0.0 3.2 0.00 0.00 0.00 84 1021.2
20260503033055 4 0 0.0 4.8 0.00 0.00 0.00 83 1021.3
20260503031550 5 138 0.0 3.2 0.00 0.00 0.00 81 1021.3
20260503030054 5 0 0.0 3.2 0.00 0.00 0.00 79 1021.3
20260503024552 5 138 1.6 4.8 0.00 0.00 0.00 80 1021.1
20260503023054 5 0 1.6 4.8 0.00 0.00 0.00 79 1021.1
20260503021553 6 0 0.0 3.2 0.00 0.00 0.00 77 1021.0
20260503020052 6 138 0.0 3.2 0.00 0.00 0.00 75 1020.6
20260503014558 6 138 0.0 3.2 0.00 0.00 0.00 74 1020.3
20260503013054 7 138 1.6 3.2 0.00 0.00 0.00 72 1020.2
20260503011551 7 138 1.6 3.2 0.00 0.00 0.00 68 1019.9
20260503010049 8 138 0.0 3.2 0.00 0.00 0.00 63 1019.7
20260503004550 10 0 0.0 4.8 0.00 0.00 0.00 62 1019.5
20260503003106 10 0 1.6 8.0 0.00 0.00 0.00 55 1019.5
20260503001549 10 128 3.2 11.3 0.00 0.00 0.00 54 1019.3
20260503000054 11 122 3.2 14.5 0.00 0.00 0.00 51 1018.9
20260502234554 11 130 4.8 12.9 0.00 0.00 0.00 49 1019.0
20260502233049 12 130 4.8 16.1 0.00 0.00 0.00 49 1018.8
20260502231605 12 109 8.0 14.5 0.00 0.00 0.00 45 1018.9
20260502230058 12 127 6.4 16.1 0.00 0.00 0.00 47 1018.9
20260502224555 12 124 6.4 19.3 0.00 0.00 0.00 48 1018.8
20260502223049 12 198 8.0 17.7 0.00 0.00 0.00 48 1018.9
20260502221559 12 196 11.3 24.1 0.00 0.00 0.00 46 1018.9
20260502214555 12 117 6.4 24.1 0.00 0.00 0.00 45 1018.7
20260502213052 12 119 6.4 20.9 0.00 0.00 0.00 47 1018.6
20260502211555 12 136 3.2 14.5 0.00 0.00 0.00 47 1018.5
20260502210104 12 28 6.4 20.9 0.00 0.00 0.00 48 1018.5
20260502204552 12 154 3.2 12.9 0.00 0.00 0.00 51 1018.6
20260502203053 12 142 4.8 17.7 0.00 0.00 0.00 52 1018.6
20260502201552 12 120 4.8 17.7 0.00 0.00 0.00 50 1018.7
20260502200101 12 138 4.8 14.5 0.00 0.00 0.00 50 1018.9
20260502194549 12 186 3.2 12.9 0.00 0.00 0.00 52 1019.0
20260502193050 12 141 3.2 17.7 0.00 0.00 0.00 54 1019.0
20260502191555 12 115 4.8 24.1 0.00 0.00 0.00 54 1019.2
20260502190106 12 131 6.4 19.3 0.00 0.00 0.00 51 1019.2